Flag for Italy Weather past 2 weeks in Palermo, Italy

Now
55 °F

Clear.


Feels Like: 52 °F
Forecast: 57 / 65 °F
Wind: 13 mph from South

Location: Palermo / Punta Raisi

Current Time: Mar 30, 2015 at 3:37:49 AM

Latest Report: Mar 30, 2015 at 2:50 AM


Visibility: 10 mi

Pressure: 29.98 "Hg

Humidity: 77%

Dew point: 48 °F

Location of PalermoLocation

Historic Weather in Palermo — Graph

°F

Palermo temperature yesterday

Maximum temperature yesterday: 61 °F (at 4:50 PM)
Minimum temperature yesterday: 54 °F (at 3:50 AM)
Average temperature yesterday: 57 °F

Past Weeks' High & Low Weather Summary

 TemperatureHumidityPressure
High68 °F (Mar 25, 6:20 PM)100% (Mar 25, 2:50 AM)30.18 "Hg (Mar 25, 2:50 AM)
Low46 °F (Mar 18, 5:20 AM)43% (Mar 25, 6:20 PM)29.42 "Hg (Mar 25, 12:20 AM)
Average58 °F80%29.92 "Hg
* Reported Mar 15 1:20 AM — Mar 30 2:20 AM, Palermo, Weather by CustomWeather, © 2015

Note: Actual official high and low records may vary slightly from our data, if they occured in-between our weather recording intervals... More about our weather records

Advertising

Palermo weather history for previous 24 hours

 ConditionsComfort  
Time TempWeatherWind HumidityBarometerVisibility
2:20 AM
Mon, Mar 30
55 °FClear.13 mph72%29.98 "Hg10 mi
1:50 AM55 °FClear.12 mph77%29.98 "Hg10 mi
1:20 AM55 °FPassing clouds.10 mph72%29.98 "HgN/A
12:50 AM54 °FClear.12 mph72%29.98 "Hg10 mi
12:20 AM55 °FClear.14 mph82%30.01 "Hg10 mi
11:50 PM
Sun, Mar 29
55 °FClear.13 mph82%30.01 "Hg10 mi
10:50 PM54 °FClear.8 mph88%30.01 "Hg10 mi
10:20 PM54 °FClear.8 mph88%30.01 "Hg10 mi
9:50 PM57 °FPassing clouds.7 mph88%30.01 "HgN/A
9:20 PM57 °FPassing clouds.7 mph82%30.01 "HgN/A
8:50 PM57 °FPassing clouds.7 mph82%30.01 "HgN/A
8:20 PM55 °FPassing clouds.5 mph88%30.01 "HgN/A
7:50 PM57 °FPassing clouds.5 mph88%29.98 "HgN/A
7:20 PM59 °FPassing clouds.5 mph82%29.98 "HgN/A
6:50 PM59 °FScattered clouds.5 mph82%29.98 "HgN/A
6:20 PM59 °FScattered clouds.5 mph82%29.98 "HgN/A
5:50 PM59 °FScattered clouds.7 mph82%29.98 "HgN/A
5:20 PM59 °FPassing clouds.7 mph82%29.98 "HgN/A
4:50 PM61 °FPassing clouds.5 mph77%29.98 "HgN/A
4:20 PM59 °FPassing clouds.6 mph77%29.95 "HgN/A
3:50 PM59 °FPassing clouds.6 mph77%29.98 "HgN/A
3:20 PM59 °FPassing clouds.7 mph72%29.98 "HgN/A
2:50 PM59 °FPassing clouds.7 mph77%29.98 "HgN/A
2:20 PM59 °FPassing clouds.9 mph72%29.98 "HgN/A
1:50 PM59 °FPassing clouds.7 mph72%29.98 "HgN/A
1:20 PM59 °FPassing clouds.8 mph72%30.01 "HgN/A
12:50 PM59 °FPassing clouds.8 mph77%30.01 "HgN/A
12:20 PM59 °FPassing clouds.9 mph72%30.01 "HgN/A
11:50 AM59 °FPassing clouds.8 mph72%30.01 "HgN/A
11:20 AM59 °FPassing clouds.8 mph72%29.98 "HgN/A
10:50 AM59 °FPassing clouds.9 mph72%30.01 "HgN/A
10:20 AM59 °FPassing clouds.9 mph72%29.98 "HgN/A
9:50 AM59 °FPassing clouds.9 mph72%29.98 "HgN/A
8:50 AM57 °FScattered clouds.10 mph77%29.98 "HgN/A
8:20 AM57 °FScattered clouds.10 mph77%29.95 "HgN/A
7:50 AM57 °FPassing clouds.12 mph77%29.95 "HgN/A
7:20 AM57 °FPassing clouds.13 mph82%29.95 "HgN/A
6:50 AM57 °FPassing clouds.14 mph82%29.92 "HgN/A
5:50 AM57 °FPassing clouds.10 mph88%29.92 "HgN/A
5:20 AM55 °FPassing clouds.1 mph94%29.92 "HgN/A
4:50 AM54 °FPassing clouds.6 mph94%29.92 "HgN/A
4:20 AM54 °FPassing clouds.1 mph94%29.92 "HgN/A
3:50 AM54 °FPassing clouds.1 mph94%29.92 "HgN/A
3:20 AM55 °FPassing clouds.2 mph88%29.92 "HgN/A
Weather by CustomWeather, © 2015

See weather overviewHow to use our weather pages